Location: Campillo
(40.8621°N, 4.2488°W)
Time: 12:00:51
(UTC+00:00)

Cosmos 1633 Rocket - Pass Details

Date: 11 May 2021
Orbit: 608 x 622 km, 82.5° (Epoch: 14 June)

Event Time Altitude Azimuth Distance (km) Brightness Sun altitude
Rises 20:34:32 0° 359° (N) 2,898 7.1 -12.2°
Reaches altitude 10° 20:36:51 10° 6° (N) 1,990 6.1 -12.6°
Maximum altitude 20:41:04 43° 78° (ENE) 870 3.5 -13.2°
Enters shadow 20:43:39 21° 140° (SE) 1,402 4.3 -13.6°
